Location: ???? ???? ?????
(31.2680°N, 31.7283°E)
Time: 09:17:36
(UTC+00:00)

CZ-2D R/B - Pass Details

Date: 13 July 2020
Orbit: 792 x 844 km, 98.7° (Epoch: 07 August)

Event Time Altitude Azimuth Distance (km) Brightness Sun altitude
Rises 23:01:55 0° 18° (NNE) 3,353 6.4 -35.0°
Reaches altitude 10° 23:04:19 10° 23° (NNE) 2,425 5.4 -34.8°
Enters shadow 23:07:49 38° 47° (NE) 1,246 3.3 -34.6°
